STARLINK-11249, 60728

Orbit data source: Space-Track

STARLINK-11249, 60728 is a payload satellite owned by SpaceX/Seattle (US) in LEO that was launched on Wed, 28 Aug 2024 UTC via an FALCON 9 launch vehicle from the Air Force Eastern Test Range (AFETR). Payload-class satellites include a variety of spacecraft equipped with specific instruments for various scientific and technological missions. These include communications satellites like Starlink; space stations such as the ISS; scientific satellites like the Hubble; Earth observation satellites from companies like Planet Labs, Umbra, and HawkEye 360; GPS; miniature CubeSats for education and research; and military/defense satellites.

Loading next visibility...
Identifier
60728, 2024-152J
Orbit
LEO
Country
Flag of USUS
Related business
Manufacturer
SpaceX/Seattle
Mission
Operational Commercial Communications
Bus & Motor
STARLINK V2MD, Unknown motor
Mass
960 kg wet, ~910 kg dry
Launch date (UTC)
2024-08-28 (1 year ago)
Launch vehicle
FALCON 9
Launch site
Air Force Eastern Test Range (AFETR)
Object type
Payload
Rocket body
Debris
Shape & HBR
Box + 2 Pan, 18.1 m
Radar Cross Section
36.964 m², Large (>1 m²)

Expand to show TLE details & history
Last TLE update: 16 hours ago

TLE from 16 hours ago
0 STARLINK-11249
1 60728U 24152J   25307.66719631 -.00001492  00000-0 -74606-5 0  9999
2 60728  53.1584  17.3685 0001286  54.4362 305.6775 15.69699650 69040
Epoch: 2025-11-03T16:00Z
TLE epoch observation values (Epoch: 2025-11-03T16:00:45.761Z)
Latitude
-0.00006°
Longitude
94.0125°
Altitude
360.166 km
Speed
7.695 km/s
True Right ascension
01h 09m 28s
True Declination
0° 00' 00"
Sunlit
Object was in full shadow at epoch
Visualization orbit readout
Latitude
Unknown
Longitude
Unknown
Altitude
Unknown
Speed
Unknown
Apparent Right ascension
Unknown
Apparent Declination
Unknown
Sunlit
N/A
Visualization observer readout
Local Sidereal Time
03:29:12
Azimuth
Unknown
Elevation
Unknown
Doppler factor
Unknown
Orbital elements
Apogee altitude
360.884 km
Perigee altitude
359.151 km
Semi-major axis
6,738.154 km
Eccentricity
0.00013
Inclination
53.1584°
RAAN
17.3685°
Arg. of periapsis
54.4362°
True anomaly
305.66553°
Mean anomaly
305.6775°
Eccentric anomaly
305.67151°
Mean motion
3.92402 °/min
Orbital period
91.74 mins
BSTAR
-0.0000074606
Loading maneuver chart data...
Computing Atmospheric mass density...
Loading historical data...
Loading historical data...
Loading historical data...
Loading historical data...
Loading historical data...
Loading historical data...
Loading historical data...

Documentation

Showing up to 5 results
|